Weather History for Sandberg, CA

Change the Weather History Date:

Thursday, December 6, 2012

  Actual Average Record
Temperature  
Mean Temperature 48 °F 43 °F  
Max Temperature 52 °F 49 °F 74 °F (1977)
Min Temperature 43 °F 37 °F 21 °F (1960)
Degree Days  
Heating Degree Days 17 22  
Month to date heating degree days 85 129  
Since 1 July heating degree days 647 908  
Cooling Degree Days 0 0  
Month to date cooling degree days 0 0  
Year to date cooling degree days 1360 998  
Moisture  
Dew Point 43 °F    
Average Humidity 81    
Maximum Humidity 100    
Minimum Humidity 61    
Precipitation  
Precipitation T in 0.06 in 2.70 in (1992)
Month to date precipitation 0.18 0.29  
Year to date precipitation 4.84 10.37  
Since 1 July precipitation 0.57 1.89  
Sea Level Pressure  
Sea Level Pressure 30.04 in    
Wind  
Wind Speed 15 mph (North)    
Max Wind Speed 35 mph    
Max Gust Speed 40 mph    
Visibility 4 miles    
Events Fog , Rain    
T = Trace of Precipitation, MM = Missing Value Source: NWS Daily Summary

Daily Weather History Graph

Daily Weather History Graph

Search for Another Location

Airport:

Trip Planner

Search our weather history database for the weather conditions in past years. The results will help you decide how hot, cold, wet, or windy it might be!

Date:

Astronomy

Dec. 06, 2012 Rise Set
Actual Time 6:48 AM PST 4:43 PM PST
Civil Twilight 6:20 AM PST 5:11 PM PST
Nautical Twilight 5:49 AM PST 5:42 PM PST
Astronomical Twilight 5:18 AM PST 6:13 PM PST
Moon No Moon Rise 11:57 AM PST (12/6)
Length of Visible Light 10h 50m
Length of Day
9h 55m
Waning Gibbous, 48% of the Moon is Illuminated
Dec 6
Waning Gibbous
Dec 13
New
Dec 19
First Quarter
Dec 28
Full
Jan 4
Last Quarter

Hourly Weather History & Observations

Time (PST) Temp. Windchill Dew Point Humidity Pressure Visibility Wind Dir Wind Speed Gust Speed Precip Events Conditions
12:48 AM 46.9 °F - 35.1 °F 63% 30.01 in 10.0 mi NNW 21.9 mph - N/A   Clear
1:48 AM 44.1 °F 39.5 °F 35.1 °F 71% 30.01 in 10.0 mi North 8.1 mph - N/A   Partly Cloudy
2:13 AM 44.6 °F 40.2 °F 35.6 °F 71% 30.09 in 10.0 mi North 8.1 mph - N/A   Partly Cloudy
2:48 AM 44.1 °F 35.9 °F 37.9 °F 79% 30.00 in 8.0 mi North 19.6 mph 25.3 mph N/A   Clear
3:31 AM 44.6 °F 42.2 °F 39.2 °F 81% 30.08 in 8.0 mi NE 4.6 mph - N/A   Mostly Cloudy
3:48 AM 45.0 °F 40.6 °F 39.9 °F 82% 30.01 in 9.0 mi NE 8.1 mph - N/A   Overcast
4:26 AM 44.6 °F 35.3 °F 41.0 °F 87% 30.05 in 6.0 mi NNW 26.5 mph 31.1 mph N/A   Scattered Clouds
4:48 AM 43.0 °F 36.4 °F 41.0 °F 93% 30.00 in 3.0 mi North 12.7 mph 24.2 mph N/A   Mostly Cloudy
4:54 AM 42.8 °F 36.6 °F 41.0 °F 93% 30.06 in 2.5 mi North 11.5 mph 24.2 mph N/A   Mostly Cloudy
5:00 AM 42.8 °F 37.0 °F 41.0 °F 93% 30.06 in 1.5 mi North 10.4 mph 24.2 mph N/A   Overcast
5:11 AM 42.8 °F 38.0 °F 41.0 °F 93% 30.06 in 2.5 mi North 8.1 mph 24.2 mph N/A   Overcast
5:20 AM 42.8 °F 34.3 °F 41.0 °F 93% 30.06 in 1.5 mi North 19.6 mph 27.6 mph N/A   Overcast
5:24 AM 42.8 °F 34.5 °F 41.0 °F 93% 30.06 in 1.2 mi North 18.4 mph 27.6 mph N/A   Overcast
5:31 AM 42.8 °F 32.7 °F 41.0 °F 93% 30.05 in 2.0 mi NNW 27.6 mph 32.2 mph N/A   Mostly Cloudy
5:38 AM 42.8 °F 32.7 °F 41.0 °F 93% 30.05 in 3.0 mi NNW 27.6 mph - N/A   Mostly Cloudy
5:41 AM 42.8 °F 32.7 °F 41.0 °F 93% 30.05 in 2.5 mi NNW 27.6 mph - N/A   Mostly Cloudy
5:48 AM 43.0 °F 33.5 °F 41.0 °F 93% 29.99 in 1.2 mi NNW 24.2 mph 34.5 mph N/A   Mostly Cloudy
5:56 AM 44.6 °F 35.3 °F 41.0 °F 87% 30.05 in 1.5 mi NNW 26.5 mph 33.4 mph N/A   Scattered Clouds
5:59 AM 44.6 °F 34.9 °F 41.0 °F 87% 30.05 in 4.0 mi NNW 28.8 mph 33.4 mph N/A   Scattered Clouds
6:48 AM 45.0 °F 37.4 °F 41.0 °F 86% 30.00 in 10.0 mi North 18.4 mph 28.8 mph N/A   Clear
7:01 AM 44.6 °F 38.1 °F 41.0 °F 87% 30.07 in 8.0 mi North 13.8 mph 24.2 mph N/A   Partly Cloudy
7:15 AM 44.6 °F 40.2 °F 42.8 °F 93% 30.07 in 5.0 mi North 8.1 mph 21.9 mph N/A   Mostly Cloudy
7:26 AM 44.6 °F 39.7 °F 42.8 °F 93% 30.08 in 4.0 mi NNE 9.2 mph 18.4 mph N/A   Mostly Cloudy
7:48 AM - - - N/A% - - North - - N/A   Unknown
8:40 AM 46.4 °F 41.9 °F 42.8 °F 87% 30.09 in 10.0 mi North 9.2 mph 23.0 mph N/A   Mostly Cloudy
8:46 AM 46.4 °F 41.9 °F 41.0 °F 81% 30.08 in 10.0 mi North 9.2 mph 25.3 mph N/A   Scattered Clouds
8:48 AM 46.9 °F - 41.0 °F 80% 30.01 in 10.0 mi North 10.4 mph 25.3 mph N/A   Scattered Clouds
9:48 AM 50.0 °F - 42.1 °F 74% 30.02 in 10.0 mi North 20.7 mph 26.5 mph N/A   Clear
10:38 AM 48.2 °F - 42.8 °F 82% 30.10 in 10.0 mi North 6.9 mph - N/A   Mostly Cloudy
10:45 AM - - - N/A% - - North - - N/A   Unknown
10:48 AM 50.0 °F - 42.1 °F 74% 30.02 in 10.0 mi North 8.1 mph - N/A   Mostly Cloudy
11:12 AM 51.8 °F - 42.8 °F 71% 30.09 in 10.0 mi NNW 16.1 mph 21.9 mph N/A   Scattered Clouds
11:16 AM 51.8 °F - 42.8 °F 71% 30.08 in 10.0 mi NNW 16.1 mph 21.9 mph N/A   Mostly Cloudy
11:25 AM 51.8 °F - 42.8 °F 71% 30.08 in 10.0 mi North 12.7 mph 20.7 mph N/A   Mostly Cloudy
11:48 AM 51.1 °F - 43.0 °F 74% 29.99 in 10.0 mi North 13.8 mph 25.3 mph N/A   Mostly Cloudy
12:37 PM 48.2 °F - 44.6 °F 87% 30.04 in 4.0 mi NNW 23.0 mph 31.1 mph N/A   Mostly Cloudy
12:40 PM 48.2 °F - 44.6 °F 87% 30.04 in 1.8 mi NNW 24.2 mph 34.5 mph N/A   Mostly Cloudy
12:48 PM 46.9 °F - 44.1 °F 90% 29.97 in 0.8 mi NNW 26.5 mph 34.5 mph N/A   Mostly Cloudy
1:03 PM 48.2 °F - 44.6 °F 87% 30.04 in 1.5 mi NNW 24.2 mph 29.9 mph N/A   Overcast
1:06 PM 48.2 °F - 44.6 °F 87% 30.04 in 3.0 mi NNW 20.7 mph 29.9 mph N/A   Overcast
1:24 PM 48.2 °F - 44.6 °F 87% 30.04 in 2.5 mi NNW 20.7 mph 25.3 mph N/A   Overcast
1:30 PM 50.0 °F - 44.6 °F 82% 30.04 in 4.0 mi NNW 19.6 mph - N/A   Haze
1:40 PM 48.2 °F - 44.6 °F 87% 30.03 in 1.5 mi North 18.4 mph 24.2 mph N/A   Overcast
1:43 PM 46.4 °F 39.0 °F 44.6 °F 93% 30.03 in 0.8 mi NNW 19.6 mph - N/A   Overcast
1:48 PM 48.0 °F - 45.0 °F 89% 29.97 in 0.5 mi NNW 24.2 mph 28.8 mph N/A Fog Fog
2:05 PM 46.4 °F 37.7 °F 44.6 °F 93% 30.02 in 0.2 mi NNW 26.5 mph 29.9 mph N/A Fog Fog
2:15 PM 48.2 °F - 44.6 °F 87% 30.02 in 0.5 mi North 20.7 mph 25.3 mph N/A   Haze
2:19 PM 48.2 °F - 44.6 °F 87% 30.02 in 2.5 mi North 8.1 mph 25.3 mph N/A   Overcast
2:25 PM 46.4 °F 39.8 °F 44.6 °F 93% 30.02 in 1.0 mi North 16.1 mph 25.3 mph N/A   Overcast
2:29 PM 46.4 °F 40.4 °F 44.6 °F 93% 30.02 in 0.5 mi North 13.8 mph 25.3 mph N/A Fog Fog
2:35 PM 46.4 °F 39.0 °F 44.6 °F 93% 30.02 in 0.2 mi North 19.6 mph 27.6 mph N/A Fog Fog
2:48 PM 46.0 °F 40.6 °F 45.0 °F 96% 29.97 in 0.5 mi North 11.5 mph 23.0 mph N/A Fog Fog
2:52 PM 46.4 °F 40.7 °F 44.6 °F 93% 30.02 in 0.2 mi North 12.7 mph 24.2 mph N/A Fog Fog
3:27 PM 46.4 °F 42.4 °F 44.6 °F 93% 30.02 in 1.0 mi North 8.1 mph 21.9 mph N/A   Mist
3:30 PM 46.4 °F 41.5 °F 44.6 °F 93% 30.01 in 2.0 mi NNE 10.4 mph 21.9 mph N/A   Overcast
3:34 PM 46.4 °F 41.9 °F 44.6 °F 93% 30.01 in 7.0 mi North 9.2 mph 21.9 mph N/A   Overcast
3:47 PM 46.0 °F 41.0 °F 44.1 °F 93% 29.95 in 1.8 mi NNE 10.4 mph 27.6 mph N/A   Overcast
3:50 PM 46.4 °F 41.1 °F 44.6 °F 93% 30.01 in 0.8 mi NNE 11.5 mph 27.6 mph N/A   Overcast
3:55 PM 46.4 °F 41.1 °F 44.6 °F 93% 30.01 in 0.2 mi NNE 11.5 mph 24.2 mph N/A Fog Fog
4:48 PM 45.0 °F 35.2 °F 44.1 °F 97% 29.96 in 0.2 mi North 29.9 mph 39.1 mph N/A Fog Fog
4:52 PM 44.6 °F 35.5 °F 44.6 °F 100% 30.01 in 0.8 mi North 25.3 mph 39.1 mph N/A   Mist
5:07 PM 44.6 °F 34.9 °F 44.6 °F 100% 30.01 in 2.5 mi NNW 28.8 mph 40.3 mph N/A   Overcast
5:11 PM 44.6 °F 36.4 °F 44.6 °F 100% 30.02 in 4.0 mi North 20.7 mph 39.1 mph N/A   Overcast
5:15 PM 44.6 °F 37.4 °F 44.6 °F 100% 30.02 in 9.0 mi North 16.1 mph 33.4 mph N/A   Overcast
5:48 PM 45.0 °F 40.6 °F 44.1 °F 97% 29.98 in 3.0 mi North 8.1 mph 28.8 mph N/A   Overcast
6:05 PM 44.6 °F 38.4 °F 44.6 °F 100% 30.03 in 1.5 mi North 12.7 mph 32.2 mph N/A   Overcast
6:14 PM 44.6 °F 37.8 °F 44.6 °F 100% 30.03 in 0.5 mi North 15.0 mph 26.5 mph N/A Fog Fog
6:26 PM 44.6 °F 36.9 °F 44.6 °F 100% 30.03 in 0.2 mi North 18.4 mph 34.5 mph 0.00 in Fog , Rain Light Rain
6:32 PM 44.6 °F 35.1 °F 44.6 °F 100% 30.03 in 0.5 mi North 27.6 mph 35.7 mph 0.00 in Fog , Rain Light Rain
6:41 PM 44.6 °F 35.9 °F 42.8 °F 93% 30.04 in 1.5 mi North 23.0 mph 39.1 mph 0.00 in Rain Light Rain
6:48 PM 45.0 °F 41.8 °F 44.1 °F 97% 30.00 in 3.0 mi Variable 5.8 mph 34.5 mph 0.00 in   Overcast
6:56 PM 44.6 °F 41.4 °F 42.8 °F 93% 30.06 in 10.0 mi Variable 5.8 mph - N/A   Overcast
7:11 PM 44.6 °F 39.7 °F 42.8 °F 93% 30.06 in 10.0 mi NNE 9.2 mph - N/A   Overcast
7:21 PM 44.6 °F 40.7 °F 42.8 °F 93% 30.06 in 10.0 mi Variable 6.9 mph - N/A   Overcast
7:48 PM 45.0 °F 39.7 °F 42.1 °F 90% 30.01 in 10.0 mi North 10.4 mph 17.3 mph N/A   Overcast
8:48 PM 44.1 °F 35.0 °F 42.1 °F 93% 30.00 in 10.0 mi North 24.2 mph 29.9 mph N/A   Scattered Clouds
9:01 PM 44.6 °F 36.1 °F 42.8 °F 93% 30.06 in 2.5 mi North 21.9 mph 31.1 mph N/A   Mostly Cloudy
9:03 PM 44.6 °F 36.1 °F 42.8 °F 93% 30.06 in 1.2 mi North 21.9 mph 31.1 mph N/A   Mostly Cloudy
9:05 PM 44.6 °F 35.7 °F 42.8 °F 93% 30.06 in 0.8 mi North 24.2 mph 28.8 mph N/A   Mist
9:20 PM 44.6 °F 35.7 °F 42.8 °F 93% 30.06 in 0.2 mi NNW 24.2 mph 29.9 mph N/A Fog Fog
9:25 PM - - - N/A% - - North - - N/A   Unknown
9:31 PM 42.8 °F 34.3 °F 42.8 °F 100% 30.06 in 1.2 mi NNW 19.6 mph 28.8 mph N/A   Overcast
9:42 PM 42.8 °F 33.8 °F 42.8 °F 100% 30.07 in 2.0 mi NNW 21.9 mph - N/A   Overcast
9:48 PM 43.0 °F 34.2 °F 42.1 °F 97% 30.01 in 1.2 mi North 20.7 mph - N/A   Overcast
9:57 PM 42.8 °F 34.5 °F 42.8 °F 100% 30.07 in 2.0 mi North 18.4 mph 27.6 mph N/A   Overcast
10:01 PM 42.8 °F 35.8 °F 42.8 °F 100% 30.07 in 4.0 mi North 13.8 mph 23.0 mph N/A   Overcast
10:04 PM 42.8 °F 36.2 °F 42.8 °F 100% 30.07 in 1.8 mi North 12.7 mph 23.0 mph N/A   Overcast
10:09 PM 42.8 °F 34.0 °F 42.8 °F 100% 30.07 in 1.0 mi North 20.7 mph 27.6 mph N/A   Overcast
10:17 PM 42.8 °F 33.8 °F 42.8 °F 100% 30.07 in 0.8 mi North 21.9 mph 27.6 mph N/A   Mist
10:30 PM 42.8 °F 36.2 °F 42.8 °F 100% 30.08 in 0.2 mi North 12.7 mph 25.3 mph N/A Fog Fog
10:39 PM 42.8 °F 36.2 °F 42.8 °F 100% 30.07 in 0.5 mi North 12.7 mph 31.1 mph N/A Fog Fog
10:44 PM 42.8 °F 37.5 °F 42.8 °F 100% 30.08 in 1.5 mi North 9.2 mph 31.1 mph N/A   Overcast
10:46 PM 42.8 °F 37.0 °F 42.8 °F 100% 30.08 in 3.0 mi North 10.4 mph 29.9 mph N/A   Overcast
10:48 PM 43.0 °F 37.2 °F 42.1 °F 97% 30.01 in 4.0 mi North 10.4 mph 21.9 mph N/A   Overcast
11:22 PM 42.8 °F 36.6 °F 42.8 °F 100% 30.07 in 1.5 mi North 11.5 mph 23.0 mph N/A   Overcast
11:26 PM 42.8 °F 36.2 °F 42.8 °F 100% 30.07 in 1.0 mi North 12.7 mph 24.2 mph N/A   Overcast
11:28 PM 42.8 °F 36.6 °F 42.8 °F 100% 30.07 in 0.8 mi North 11.5 mph 24.2 mph N/A   Mist
11:40 PM 42.8 °F 38.0 °F 42.8 °F 100% 30.08 in 1.2 mi NNE 8.1 mph 24.2 mph N/A   Overcast
11:48 PM 43.0 °F 36.8 °F 42.1 °F 97% 30.02 in 5.0 mi North 11.5 mph 19.6 mph N/A   Overcast